OBJECT Z, 47436

Orbit data source: Space-Track

You're viewing an Uncataloged Satellite

Recently launched and/or uncataloged satellites may have evolving metadata. Metadata may include but not limited to: Owner, Maufacturer, Bus, Motor, and Mission.

OBJECT Z, 47436 is a satellite in SSO that was launched on Sun, 24 Jan 2021 UTC launched from the Air Force Eastern Test Range (AFETR). Unknown objects in Earth's orbit typically refer to objects detected orbiting the Earth but have not yet been identified or cataloged. These objects could be anything from previously untracked satellites, spent rocket stages, debris from satellite collisions, or even natural meteoroids temporarily captured by Earth's gravity.

Loading next visibility...
Identifier
47436, 2021-006Z
Orbit
SSO
Country
Flag of TBDTBD
Related business
Manufacturer
SpaceX/Seattle
Mission
Spacecraft
Bus & Motor
Unknown
Mass
~100 kg wet, ~100 kg dry
Launch date (UTC)
2021-01-24 (5 years ago)
Launch vehicle
Unknown
Launch site
Air Force Eastern Test Range (AFETR)
Object type
Unknown
Shape & HBR
Cyl, 3.5 m
Radar Cross Section
0.110 m², Medium (>0.1 m² and < 1m²)

Expand to show TLE details & history
Last TLE update: 4 hours ago

TLE from 4 hours ago
0 OBJECT Z
1 47436U 21006Z   26037.18562385  .00010589  00000-0  36061-3 0  9991
2 47436  97.2434  82.4720 0008745 309.4197  50.6269 15.30539845279341
Epoch: 2026-02-06T04:27Z
TLE epoch observation values (Epoch: 2026-02-06T04:27:17.900Z)
Latitude
-0.00008°
Longitude
-120.6797°
Altitude
473.511 km
Speed
7.631 km/s
True Right ascension
05h 29m 53s
True Declination
0° 00' 00"
Sunlit
Object was in full shadow at epoch
Visualization orbit readout
Latitude
Unknown
Longitude
Unknown
Altitude
Unknown
Speed
Unknown
Apparent Right ascension
Unknown
Apparent Declination
Unknown
Sunlit
N/A
Visualization observer readout
Local Sidereal Time
10:37:08
Azimuth
Unknown
Elevation
Unknown
Doppler factor
Unknown
Orbital elements
Apogee altitude
477.135 km
Perigee altitude
465.156 km
Semi-major axis
6,849.282 km
Eccentricity
0.00087
Inclination
97.2434°
RAAN
82.472°
Arg. of periapsis
309.4197°
True anomaly
50.70442°
Mean anomaly
50.6269°
Eccentric anomaly
50.66565°
Mean motion
3.82891 °/min
Orbital period
94.02 mins
BSTAR
0.00036061
Loading maneuver chart data...
Computing Atmospheric mass density...

Documentation

Showing up to 5 results
|